• In Uzbekistan
  • List of Countries
  • For 7 days
  • Water Temperature
  • Satellite Maps
  • Weather Map
  • Weather Widgets
  • user-avatar
    Login

    Hourly Weather Encamp

    Today, 23 June, Friday

    Time Temperature Precipitation Wind Pressure Humidity
    00:00 +13°C° 0 mm 1 mps 628 mmHg 81%
    01:00 +13°C° 0.1 mm 1 mps 628 mmHg 82%
    02:00 +13°C° 0.1 mm 1 mps 628 mmHg 83%
    03:00 +13°C° 0.1 mm 1 mps 628 mmHg 84%
    04:00 +14°C° 0.1 mm 1 mps 629 mmHg 80%
    05:00 +16°C° 0.1 mm 1 mps 630 mmHg 77%
    06:00 +18°C° 0.1 mm 1 mps 631 mmHg 74%
    07:00 +20°C° 0.1 mm 1 mps 631 mmHg 66%
    08:00 +22°C° 0.1 mm 1 mps 632 mmHg 58%
    09:00 +24°C° 0.1 mm 2 mps 633 mmHg 49%
    10:00 +25°C° 0.3 mm 2 mps 633 mmHg 48%
    11:00 +25°C° 0.3 mm 2 mps 633 mmHg 46%
    12:00 +26°C° 0.3 mm 2 mps 633 mmHg 45%
    13:00 +26°C° 1 mm 2 mps 633 mmHg 47%
    14:00 +26°C° 1 mm 2 mps 633 mmHg 50%
    15:00 +26°C° 1 mm 2 mps 633 mmHg 52%
    16:00 +25°C° 0.7 mm 2 mps 632 mmHg 58%
    17:00 +23°C° 0.7 mm 2 mps 632 mmHg 63%
    18:00 +21°C° 0.7 mm 2 mps 631 mmHg 69%
    19:00 +20°C° 0.3 mm 1 mps 630 mmHg 76%
    20:00 +18°C° 0.3 mm 1 mps 630 mmHg 83%
    21:00 +14°C° 0.3 mm 1 mps 629 mmHg 90%
    22:00 +14°C° 0.3 mm 1 mps 629 mmHg 91%
    23:00 +14°C° 0.3 mm 1 mps 629 mmHg 92%

    Tomorrow, 24 June, Saturday

    Time Temperature Precipitation Wind Pressure Humidity
    00:00 +13°C° 0.3 mm 1 mps 629 mmHg 92%
    01:00 +13°C° 0.1 mm 1 mps 629 mmHg 92%
    02:00 +13°C° 0.1 mm 1 mps 629 mmHg 92%
    03:00 +12°C° 0.1 mm 1 mps 628 mmHg 92%
    04:00 +14°C° 0 mm 1 mps 629 mmHg 89%
    05:00 +15°C° 0 mm 1 mps 629 mmHg 86%
    06:00 +16°C° 0 mm 1 mps 630 mmHg 83%
    07:00 +19°C° 0.1 mm 1 mps 630 mmHg 74%
    08:00 +19°C° 0.1 mm 2 mps 631 mmHg 66%
    09:00 +21°C° 0.1 mm 2 mps 632 mmHg 58%
    10:00 +23°C° 0.2 mm 2 mps 632 mmHg 54%
    11:00 +24°C° 0.2 mm 3 mps 632 mmHg 51%
    12:00 +24°C° 0.2 mm 3 mps 632 mmHg 48%
    13:00 +24°C° 0.5 mm 3 mps 631 mmHg 50%
    14:00 +24°C° 0.5 mm 3 mps 631 mmHg 51%
    15:00 +24°C° 0.5 mm 3 mps 631 mmHg 53%
    16:00 +22°C° 0.6 mm 3 mps 630 mmHg 59%
    17:00 +21°C° 0.6 mm 2 mps 630 mmHg 64%
    18:00 +20°C° 0.6 mm 2 mps 630 mmHg 70%
    19:00 +19°C° 0.2 mm 1 mps 629 mmHg 76%
    20:00 +16°C° 0.2 mm 1 mps 629 mmHg 83%
    21:00 +13°C° 0.2 mm 1 mps 628 mmHg 89%
    22:00 +13°C° 0 mm 1 mps 628 mmHg 91%
    23:00 +13°C° 0 mm 1 mps 628 mmHg 92%

    Day after tomorrow, 25 June, Sunday

    Time Temperature Precipitation Wind Pressure Humidity
    00:00 +12°C° 0 mm 1 mps 628 mmHg 93%
    01:00 +12°C° 0 mm 1 mps 627 mmHg 93%
    02:00 +11°C° 0 mm 1 mps 627 mmHg 92%
    03:00 +11°C° 0 mm 1 mps 627 mmHg 92%
    04:00 +12°C° 0 mm 1 mps 627 mmHg 88%
    05:00 +13°C° 0 mm 1 mps 628 mmHg 85%
    06:00 +15°C° 0 mm 1 mps 628 mmHg 81%
    07:00 +18°C° 0 mm 1 mps 629 mmHg 72%
    08:00 +19°C° 0 mm 2 mps 630 mmHg 63%
    09:00 +20°C° 0 mm 2 mps 630 mmHg 53%
    10:00 +21°C° 0.3 mm 2 mps 630 mmHg 52%
    11:00 +23°C° 0.3 mm 2 mps 631 mmHg 50%
    12:00 +24°C° 0.3 mm 3 mps 631 mmHg 48%
    13:00 +24°C° 0.9 mm 3 mps 630 mmHg 51%
    14:00 +24°C° 0.9 mm 2 mps 630 mmHg 53%
    15:00 +24°C° 0.9 mm 2 mps 629 mmHg 55%
    16:00 +23°C° 0.6 mm 2 mps 629 mmHg 59%
    17:00 +21°C° 0.6 mm 2 mps 628 mmHg 63%
    18:00 +21°C° 0.6 mm 1 mps 628 mmHg 66%
    19:00 +19°C° 0.3 mm 1 mps 627 mmHg 74%
    20:00 +16°C° 0.3 mm 1 mps 626 mmHg 81%
    21:00 +14°C° 0.3 mm 1 mps 625 mmHg 89%
    22:00 +14°C° 0.2 mm 1 mps 625 mmHg 89%
    23:00 +14°C° 0.2 mm 1 mps 625 mmHg 90%

    26 June, Monday

    Time Temperature Precipitation Wind Pressure Humidity
    00:00 +14°C° 0.2 mm 1 mps 625 mmHg 90%
    01:00 +13°C° 0 mm 1 mps 625 mmHg 90%
    02:00 +12°C° 0 mm 1 mps 624 mmHg 90%
    03:00 +12°C° 0 mm 1 mps 624 mmHg 90%
    04:00 +13°C° 0 mm 1 mps 624 mmHg 85%
    05:00 +14°C° 0 mm 2 mps 624 mmHg 80%
    06:00 +15°C° 0 mm 2 mps 624 mmHg 75%
    07:00 +17°C° 0 mm 2 mps 625 mmHg 65%
    08:00 +19°C° 0 mm 3 mps 625 mmHg 54%
    09:00 +21°C° 0 mm 3 mps 626 mmHg 44%
    10:00 +22°C° 0.1 mm 4 mps 626 mmHg 43%
    11:00 +23°C° 0.1 mm 4 mps 626 mmHg 42%
    12:00 +25°C° 0.1 mm 4 mps 626 mmHg 41%
    13:00 +25°C° 0.2 mm 4 mps 626 mmHg 40%
    14:00 +25°C° 0.2 mm 4 mps 626 mmHg 40%
    15:00 +23°C° 0.2 mm 4 mps 626 mmHg 40%
    16:00 +24°C° 0.1 mm 3 mps 625 mmHg 45%
    17:00 +23°C° 0.1 mm 2 mps 625 mmHg 50%
    18:00 +21°C° 0.1 mm 2 mps 624 mmHg 55%
    19:00 +19°C° 0.2 mm 1 mps 624 mmHg 63%
    20:00 +15°C° 0.2 mm 1 mps 623 mmHg 72%
    21:00 +13°C° 0.2 mm 1 mps 623 mmHg 80%
    22:00 +12°C° 0.1 mm 1 mps 623 mmHg 81%
    23:00 +12°C° 0.1 mm 1 mps 623 mmHg 82%

    27 June, Tuesday

    Time Temperature Precipitation Wind Pressure Humidity
    00:00 +11°C° 0.1 mm 1 mps 623 mmHg 83%
    01:00 +11°C° 0 mm 1 mps 622 mmHg 84%
    02:00 +11°C° 0 mm 1 mps 622 mmHg 84%
    03:00 +10°C° 0 mm 1 mps 622 mmHg 84%
    04:00 +12°C° 0 mm 1 mps 623 mmHg 80%
    05:00 +14°C° 0 mm 1 mps 624 mmHg 76%
    06:00 +15°C° 0 mm 1 mps 624 mmHg 71%
    07:00 +18°C° 0 mm 1 mps 625 mmHg 64%
    08:00 +19°C° 0 mm 2 mps 626 mmHg 56%
    09:00 +21°C° 0 mm 2 mps 627 mmHg 49%
    10:00 +22°C° 0 mm 3 mps 627 mmHg 45%
    11:00 +24°C° 0 mm 3 mps 627 mmHg 41%
    12:00 +25°C° 0 mm 4 mps 627 mmHg 37%
    13:00 +25°C° 0.1 mm 4 mps 627 mmHg 37%
    14:00 +26°C° 0.1 mm 4 mps 627 mmHg 37%
    15:00 +26°C° 0.1 mm 5 mps 627 mmHg 36%
    16:00 +25°C° 0.3 mm 4 mps 626 mmHg 44%
    17:00 +22°C° 0.3 mm 3 mps 625 mmHg 51%
    18:00 +21°C° 0.3 mm 3 mps 624 mmHg 58%
    19:00 +19°C° 0.3 mm 2 mps 624 mmHg 66%
    20:00 +16°C° 0.3 mm 2 mps 623 mmHg 74%
    21:00 +14°C° 0.3 mm 1 mps 622 mmHg 82%
    22:00 +14°C° 0.1 mm 1 mps 622 mmHg 80%
    23:00 +14°C° 0.1 mm 2 mps 621 mmHg 78%

    28 June, Wednesday

    Time Temperature Precipitation Wind Pressure Humidity
    00:00 +13°C° 0.1 mm 2 mps 621 mmHg 76%
    01:00 +13°C° 1.3 mm 2 mps 620 mmHg 82%
    02:00 +12°C° 1.3 mm 2 mps 620 mmHg 87%
    03:00 +11°C° 1.3 mm 3 mps 619 mmHg 93%
    04:00 +11°C° 1.4 mm 3 mps 619 mmHg 91%
    05:00 +13°C° 1.4 mm 2 mps 619 mmHg 90%
    06:00 +13°C° 1.4 mm 2 mps 620 mmHg 89%
    07:00 +15°C° 0.1 mm 2 mps 620 mmHg 78%
    08:00 +16°C° 0.1 mm 3 mps 621 mmHg 68%
    09:00 +18°C° 0.1 mm 3 mps 622 mmHg 57%
    10:00 +18°C° 0.4 mm 3 mps 622 mmHg 57%
    11:00 +18°C° 0.4 mm 4 mps 622 mmHg 56%
    12:00 +18°C° 0.4 mm 4 mps 621 mmHg 55%
    13:00 +18°C° 1 mm 4 mps 621 mmHg 56%
    14:00 +17°C° 1 mm 5 mps 621 mmHg 57%
    15:00 +16°C° 1 mm 5 mps 621 mmHg 58%
    16:00 +15°C° 1 mm 4 mps 621 mmHg 61%
    17:00 +14°C° 1 mm 4 mps 621 mmHg 65%
    18:00 +13°C° 1 mm 3 mps 620 mmHg 69%
    19:00 +11°C° 0.5 mm 3 mps 620 mmHg 74%
    20:00 +10°C° 0.5 mm 2 mps 620 mmHg 80%
    21:00 +8°C° 0.5 mm 2 mps 620 mmHg 85%
    22:00 +8°C° 0.1 mm 1 mps 620 mmHg 86%
    23:00 +8°C° 0.1 mm 1 mps 619 mmHg 87%
    Show more